Location: Fort Worth, Tx
(32.7431°N, 97.3695°W)
Time: 22:26:19
(UTC-04:00)

BlueWalker 3 - Visible Passes

Search period start: 15 June 2024 00:00
Search period end: 25 June 2024 00:00
Orbit: 480 x 494 km, 53.2° (Epoch: 15 June)

Date Brightness Start Highest point End Pass type
(mag) Time Alt. Az. Time Alt. Az. Time Alt. Az.
15 Jun 5.0 01:49:45 13° NNW 01:49:45 13° NNW 01:51:08 10° N visible
15 Jun 5.1 06:47:18 10° N 06:49:01 13° NNE 06:50:44 10° ENE visible
15 Jun 4.4 23:48:25 12° NE 23:48:25 12° NE 23:48:44 10° NE visible
16 Jun 4.9 01:22:32 13° NW 01:23:30 14° NNW 01:25:38 10° N visible
16 Jun 5.2 06:21:51 10° N 06:23:20 12° NNE 06:24:49 10° NE visible
16 Jun 1.8 23:15:43 10° SSW 23:19:23 59° SE 23:23:04 10° NE visible
17 Jun 4.9 00:55:31 10° WNW 00:57:49 15° NW 01:00:06 10° N visible
17 Jun 5.4 05:56:26 10° NNE 05:57:38 11° NNE 05:58:50 10° NE visible
17 Jun 1.9 22:50:05 10° SSW 22:53:44 53° SE 22:57:23 10° NE visible
18 Jun 4.9 00:29:41 10° WNW 00:32:07 16° NW 00:34:33 10° N visible
18 Jun 5.5 05:31:05 10° NNE 05:31:56 11° NNE 05:32:45 10° NE visible
18 Jun 2.0 22:24:28 10° SSW 22:28:04 48° SE 22:31:41 10° NE visible
19 Jun 4.9 00:03:50 10° WNW 00:06:24 17° NW 00:08:58 10° N visible
19 Jun 2.2 06:41:13 10° NW 06:44:56 69° NE 06:48:39 10° SE visible
19 Jun 4.8 23:37:59 10° W 23:40:41 18° NW 23:43:23 10° N visible
20 Jun 2.4 06:15:33 10° NW 06:19:15 63° NE 06:22:56 10° SE visible
20 Jun 4.8 23:12:09 10° W 23:14:57 20° NW 23:17:46 10° NNE visible
21 Jun 2.5 05:49:51 10° NW 05:53:32 57° NE 05:57:12 10° SE visible
21 Jun 4.7 22:46:18 10° W 22:49:13 21° NW 22:52:08 10° NNE visible
22 Jun 2.7 05:24:10 10° NNW 05:27:49 52° NE 05:31:28 10° ESE visible
22 Jun 4.7 22:20:27 10° W 22:23:28 23° NW 22:26:29 10° NNE visible
23 Jun 2.8 04:58:28 10° NNW 05:02:05 47° NE 05:05:41 10° ESE visible
23 Jun 3.6 06:37:58 10° W 06:39:52 14° WSW 06:41:47 10° SSW visible
24 Jun 3.8 04:32:45 10° NNW 04:34:39 26° NNW 04:34:39 26° NNW visible
